Regional Weather Roundup
Issued by NWS Sioux Falls, SD

Home | Current Version | Previous Version | Text Only | Print | Product List | Glossary On
Versions: 1 2 3 4 5 6 7 8 9 10 11 12 13 14 15 16 17 18 19 20 21 22 23 24 25 26 27 28 29 30 31 32 33 34 35 36 37 38 39 40 41 42 43 44 45 46 47 48 49 50
000
ASUS43 KFSD 270202
RWRFSD

WEATHER ROUNDUP FOR SE SOUTH DAKOTA/SW MINNESOTA/NW IOWA
NATIONAL WEATHER SERVICE SIOUX FALLS SD
900 PM CDT WED APR 26 2017

NOTE: "FAIR" INDICATES FEW OR NO CLOUDS BELOW 12,000 FEET WITH NO
SIGNIFICANT WEATHER AND OR OBSTRUCTIONS TO VISIBILITY.


SDZ038>040-050-052>070-270300-
SOUTHEAST SOUTH DAKOTA

CITY           SKY/WX    TMP DP  RH WIND       PRES   REMARKS
BROOKINGS      CLOUDY    29  25  85 NW16      29.66F WCI  17
CHAMBERLAIN    CLEAR     38  30  72 N6        29.71S
HURON          CLOUDY    32  26  78 N16       29.72F WCI  21
MADISON        CLOUDY    30  30 100 N18       29.66S WCI  18
MITCHELL       CLOUDY    35  28  75 N14       29.72S WCI  26
SIOUX FALLS    CLOUDY    33  27  78 N15       29.67S WCI  23
WINNER         FAIR      40  28  62 N9        29.70S
YANKTON        CLOUDY    37  28  70 NW16      29.69R
$$

MNZ071-072-080-081-089-090-097-098-270300-
SOUTHWEST MINNESOTA

CITY           SKY/WX    TMP DP  RH WIND       PRES   REMARKS
FAIRMONT       CLOUDY    33  32  96 NW16      29.63R WCI  23
JACKSON        CLOUDY    32  30  93 NW15G22   29.63S WCI  22
MARSHALL       CLOUDY    30  27  88 NW18      29.67R WCI  18
MONTEVIDEO     CLOUDY    30  28  93 N15       29.66R WCI  19
PIPESTONE      CLOUDY    30  25  80 N10       29.64S WCI  21
REDWOOD FALLS  CLOUDY    33  28  81 NW10      29.65R WCI  25
TRACY          CLOUDY    31  29  91 N14G20    29.66R WCI  21
WINDOM         PTCLDY    30  28  93 NW20      29.64S WCI  18
WORTHINGTON    CLOUDY    31  28  89 NW17      29.65R WCI  19
$$

IAZ001>003-012>014-020>022-031-032-NEZ013-014-SDZ071-270300-
NORTHWEST IOWA

CITY           SKY/WX    TMP DP  RH WIND       PRES   REMARKS
CHEROKEE       CLOUDY    35  32  90 N14G20    29.65F WCI  26
DENISON        CLOUDY    37  32  81 NW13G18   29.66R
ESTHERVILLE    CLOUDY    33  31  92 NW14      29.63S WCI  23
LE MARS        CLOUDY    36  30  80 N9G16     29.68S
ORANGE CITY    CLOUDY    34  32  93 N10G16    29.66S WCI  26
SHELDON        CLOUDY    34  28  80 NW16      29.65R WCI  23
SIOUX CITY     CLOUDY    39  30  70 N13       29.67R
SPENCER        CLOUDY    35  31  85 NW15      29.64S WCI  25
STORM LAKE     CLOUDY    36  32  87 NW18      29.63F
$$

ABBREVIATIONS USED IN REMARKS
   TC - TEMPERATURE IN CELSIUS
  WCI - WIND CHILL INDEX
   HX - HEAT INDEX
  VSB - VISIBILITY





USA.gov is the U.S. government's official web portal to all federal, state and local government web resources and services.